Regional Weather Roundup
Issued by NWS Memphis, TN

Home | Current Version | Previous Version | Text Only | Print | Product List | Glossary On
Versions: 1 2 3 4 5 6 7 8 9 10 11 12 13 14 15 16 17 18 19 20 21 22 23 24 25 26 27 28 29 30 31 32 33 34 35 36 37 38 39 40 41 42 43 44 45 46 47 48 49 50
000
ASUS44 KMEG 241900
RWRMEG
MEMPHIS CWA HOURLY WEATHER ROUNDUP
NATIONAL WEATHER SERVICE MEMPHIS TN
200 PM CDT MON JUL 24 2017

...WEST TENNESSEE...

CITY           SKY/WX    TMP DP  RH WIND       PRES   REMARKS
MEMPHIS INTL   CLOUDY    88  75  65 VRB6      29.97S HX  97
NWS MEMPHIS      N/A     89 N/A N/A MISG        N/A
JACKSON        CLOUDY    87  75  67 VRB3      29.97S HX  96


...EASTERN ARKANSAS...

CITY           SKY/WX    TMP DP  RH WIND       PRES   REMARKS
JONESBORO      CLOUDY    88  78  72 SE7       29.95S HX 101
WEST MEMPHIS   CLOUDY    87  77  72 S7        29.96R HX  99
BATESVILLE     PTSUNNY   93  75  55 E5        29.95F HX 104
WALNUT RIDGE   MOSUNNY   90  75  62 CALM      29.95S HX 100
BLYTHEVILLE    CLOUDY    87  77  72 SW7       29.96S HX  99
SEARCY         MOSUNNY   90  79  70 S6        29.96F HX 106
STUTTGART      MOSUNNY   88  68  51 S6        29.97S HX  91
PINE BLUFF     MOSUNNY   88  72  58 CALM      29.95F HX  94
MONTICELLO     PTSUNNY   87  73  62 S7        29.96F HX  94


...NORTH MISSISSIPPI...

CITY           SKY/WX    TMP DP  RH WIND       PRES   REMARKS
TUPELO         CLOUDY    86  73  65 SE8       29.98S HX  93
TUNICA           N/A     86  73  66 S5        29.97S HX  93
CLARKSDALE       N/A     90  79  70 S8        29.96F HX 105
GREENWOOD      CLOUDY    88  76  67 N3        29.96S HX  99
COLUMBUS       PTSUNNY   88  77  70 CALM      29.97S HX 100
STARKVILLE     PTSUNNY   88  73  62 CALM      29.99S HX  96
GOLDEN TRIANGL PTSUNNY   90  72  55 SW5       29.94S HX  96


...SOUTHEAST MISSOURI...

CITY           SKY/WX    TMP DP  RH WIND       PRES   REMARKS
MALDEN         MOSUNNY   90  73  58 CALM      29.96S HX  98
WEST PLAINS    PTSUNNY   91  65  41 S7        29.99F HX  93
POPLAR BLUFF   SUNNY     91  74  57 MISG      29.94S HX 100
CAPE GIRARDEAU SUNNY     92  69  47 VRB6      29.93F HX  97


...NORTHWEST ALABAMA...

CITY           SKY/WX    TMP DP  RH WIND       PRES   REMARKS
MUSCLE SHOALS  MOSUNNY   94  70  45 N5        29.97S HX 100


...MIDDLE TENNESSEE...

CITY           SKY/WX    TMP DP  RH WIND       PRES   REMARKS
NASHVILLE      CLOUDY    89  72  56 CALM      29.97F HX  96
CLARKSVILLE    PTSUNNY   88  74  63 VRB6      29.96S HX  96


...WESTERN KENTUCKY...

CITY           SKY/WX    TMP DP  RH WIND       PRES   REMARKS
PADUCAH        CLOUDY    92  71  50 CALM      29.94S HX  98
FORT CAMPBELL  PTSUNNY   88  74  63 SW6       29.96S HX  96


...CENTRAL ARKANSAS...

CITY           SKY/WX    TMP DP  RH WIND       PRES   REMARKS
LITTLE ROCK    PTSUNNY   89  76  65 SE6       29.95F HX 100


SKY/WX REPORTED AS FAIR MEANS FEW OR NO CLOUDS BELOW
12 THOUSAND FEET.





USA.gov is the U.S. government's official web portal to all federal, state and local government web resources and services.